SL-12 R/B(2)

Last updated on Wed Nov 05 2025 00:02:14 GMT+0000 (Coordinated Universal Time)

1 15772U 85042D 25308.56462505 .00000132 00000+0 81063-4 0 9999 2 15772 71.1093 352.0711 0036904 317.5698 193.1209 14.21933288 96602
UTC large
Height (km)
Speed (km/s)
/
Latitude / Longitude
Inclination (degrees)
Orbital Period (minutes)
Azimuth
Elevation
Range (km)
Doppler Factor

Next 0 passes for location: London (51.5072 / 0.1276)

Sorry there are no passes over London.